Time,TemperatureF,DewpointF,PressureIn,WindDirection,WindDirectionDegrees,WindSpeedMPH,WindSpeedGustMPH,Humidity,HourlyPrecipIn,Conditions,Clouds,dailyrainin,SoftwareType,DateUTC
2013-03-28 00:01:00,45.9,42.0,30.20,NE,47,0.0,-999.0,86,-99.99,,,0.00,weatherlink.com 1.10,2013-03-28 04:01:00,
2013-03-28 00:16:00,45.4,42.0,30.20,NE,47,0.0,-999.0,88,-99.99,,,0.00,weatherlink.com 1.10,2013-03-28 04:16:00,
2013-03-28 00:31:00,45.1,42.0,30.19,NE,47,0.0,-999.0,89,-99.99,,,0.00,weatherlink.com 1.10,2013-03-28 04:31:00,
2013-03-28 00:46:00,44.9,42.0,30.19,NE,47,0.0,-999.0,90,-99.99,,,0.00,weatherlink.com 1.10,2013-03-28 04:46:00,
2013-03-28 01:01:00,44.8,42.0,30.19,NE,47,0.0,-999.0,90,-99.99,,,0.00,weatherlink.com 1.10,2013-03-28 05:01:00,
2013-03-28 01:31:00,44.7,42.0,30.19,NE,47,0.0,-999.0,90,-99.99,,,0.00,weatherlink.com 1.10,2013-03-28 05:31:00,
2013-03-28 01:46:00,44.2,42.0,30.19,NE,47,0.0,-999.0,90,-99.99,,,0.00,weatherlink.com 1.10,2013-03-28 05:46:00,
2013-03-28 02:01:00,44.1,42.0,30.19,NE,47,0.0,-999.0,91,-99.99,,,0.00,weatherlink.com 1.10,2013-03-28 06:01:00,
2013-03-28 02:16:00,45.1,43.0,30.19,NE,47,0.0,-999.0,91,-99.99,,,0.00,weatherlink.com 1.10,2013-03-28 06:16:00,
2013-03-28 02:31:00,46.0,43.0,30.18,NE,47,0.0,-999.0,89,-99.99,,,0.00,weatherlink.com 1.10,2013-03-28 06:31:00,
2013-03-28 02:46:00,45.5,43.0,30.18,WNW,284,0.0,-999.0,89,-99.99,,,0.00,weatherlink.com 1.10,2013-03-28 06:46:00,
2013-03-28 03:01:00,44.8,42.0,30.17,WNW,285,0.0,-999.0,90,-99.99,,,0.00,weatherlink.com 1.10,2013-03-28 07:01:00,
2013-03-28 03:31:00,44.2,42.0,30.17,WNW,289,0.0,-999.0,91,-99.99,,,0.00,weatherlink.com 1.10,2013-03-28 07:31:00,
2013-03-28 03:46:00,44.2,42.0,30.17,WNW,290,0.0,-999.0,91,-99.99,,,0.00,weatherlink.com 1.10,2013-03-28 07:46:00,
2013-03-28 04:01:00,44.3,42.0,30.16,WNW,289,0.0,-999.0,92,-99.99,,,0.00,weatherlink.com 1.10,2013-03-28 08:01:00,
2013-03-28 04:16:00,43.9,42.0,30.17,WNW,289,0.0,-999.0,91,-99.99,,,0.00,weatherlink.com 1.10,2013-03-28 08:16:00,
2013-03-28 04:32:00,43.8,42.0,30.17,WNW,290,0.0,-999.0,92,-99.99,,,0.00,weatherlink.com 1.10,2013-03-28 08:32:00,
2013-03-28 04:46:00,43.8,41.0,30.17,WNW,293,1.0,-999.0,91,-99.99,,,0.00,weatherlink.com 1.10,2013-03-28 08:46:00,
2013-03-28 05:01:00,43.8,41.0,30.17,WNW,294,0.0,-999.0,91,-99.99,,,0.00,weatherlink.com 1.10,2013-03-28 09:01:00,
2013-03-28 05:16:00,44.0,42.0,30.17,WNW,295,0.0,-999.0,91,-99.99,,,0.00,weatherlink.com 1.10,2013-03-28 09:16:00,
2013-03-28 05:31:00,44.1,41.0,30.17,WNW,300,0.0,-999.0,90,-99.99,,,0.00,weatherlink.com 1.10,2013-03-28 09:31:00,
2013-03-28 05:46:00,44.1,41.0,30.17,WNW,299,0.0,-999.0,90,-99.99,,,0.00,weatherlink.com 1.10,2013-03-28 09:46:00,
2013-03-28 06:01:00,44.0,42.0,30.18,WNW,299,2.0,-999.0,91,-99.99,,,0.00,weatherlink.com 1.10,2013-03-28 10:01:00,
2013-03-28 06:17:00,44.1,41.0,30.18,WNW,299,0.0,-999.0,90,-99.99,,,0.00,weatherlink.com 1.10,2013-03-28 10:17:00,
2013-03-28 06:32:00,44.1,41.0,30.18,WNW,299,0.0,-999.0,90,-99.99,,,0.00,weatherlink.com 1.10,2013-03-28 10:32:00,
2013-03-28 06:47:00,43.9,41.0,30.19,WNW,299,2.0,-999.0,90,-99.99,,,0.00,weatherlink.com 1.10,2013-03-28 10:47:00,
2013-03-28 07:02:00,43.9,41.0,30.19,WNW,299,3.0,-999.0,90,-99.99,,,0.00,weatherlink.com 1.10,2013-03-28 11:02:00,
2013-03-28 07:17:00,44.0,41.0,30.19,WNW,298,3.0,-999.0,89,-99.99,,,0.00,weatherlink.com 1.10,2013-03-28 11:17:00,
2013-03-28 07:32:00,43.9,41.0,30.19,WNW,298,2.0,-999.0,89,-99.99,,,0.00,weatherlink.com 1.10,2013-03-28 11:32:00,
2013-03-28 07:47:00,44.3,41.0,30.19,WNW,298,3.0,-999.0,88,-99.99,,,0.00,weatherlink.com 1.10,2013-03-28 11:47:00,
2013-03-28 08:02:00,45.5,42.0,30.20,WNW,302,0.0,-999.0,87,-99.99,,,0.00,weatherlink.com 1.10,2013-03-28 12:02:00,
2013-03-28 08:17:00,47.0,43.0,30.20,NW,305,5.0,-999.0,85,-99.99,,,0.00,weatherlink.com 1.10,2013-03-28 12:17:00,
2013-03-28 08:32:00,49.5,44.0,30.20,WNW,296,0.0,-999.0,81,-99.99,,,0.00,weatherlink.com 1.10,2013-03-28 12:32:00,
2013-03-28 08:47:00,51.8,44.0,30.20,NNW,341,0.0,-999.0,75,-99.99,,,0.00,weatherlink.com 1.10,2013-03-28 12:47:00,
2013-03-28 09:02:00,54.1,44.0,30.21,NNW,346,0.0,-999.0,69,-99.99,,,0.00,weatherlink.com 1.10,2013-03-28 13:02:00,
2013-03-28 09:17:00,56.9,45.0,30.22,North,350,0.0,-999.0,65,-99.99,,,0.00,weatherlink.com 1.10,2013-03-28 13:17:00,
2013-03-28 09:32:00,58.6,45.0,30.22,NNW,335,0.0,-999.0,60,-99.99,,,0.00,weatherlink.com 1.10,2013-03-28 13:32:00,
2013-03-28 09:47:00,59.9,43.0,30.23,North,355,5.0,-999.0,55,-99.99,,,0.00,weatherlink.com 1.10,2013-03-28 13:47:00,
2013-03-28 10:02:00,61.4,43.0,30.23,NNW,341,6.0,-999.0,52,-99.99,,,0.00,weatherlink.com 1.10,2013-03-28 14:02:00,
2013-03-28 10:17:00,62.3,43.0,30.23,North,355,5.0,-999.0,49,-99.99,,,0.00,weatherlink.com 1.10,2013-03-28 14:17:00,
2013-03-28 10:32:00,62.9,44.0,30.23,NE,34,9.0,-999.0,50,-99.99,,,0.00,weatherlink.com 1.10,2013-03-28 14:32:00,
2013-03-28 10:47:00,63.3,45.0,30.24,NNE,16,2.0,-999.0,51,-99.99,,,0.00,weatherlink.com 1.10,2013-03-28 14:47:00,
2013-03-28 11:02:00,64.0,44.0,30.24,NNW,344,6.0,-999.0,48,-99.99,,,0.00,weatherlink.com 1.10,2013-03-28 15:02:00,
2013-03-28 11:17:00,64.8,44.0,30.23,NE,42,5.0,-999.0,48,-99.99,,,0.00,weatherlink.com 1.10,2013-03-28 15:17:00,
2013-03-28 11:32:00,64.1,44.0,30.23,NE,49,11.0,-999.0,48,-99.99,,,0.00,weatherlink.com 1.10,2013-03-28 15:32:00,
2013-03-28 11:47:00,64.2,43.0,30.24,NE,55,1.0,-999.0,46,-99.99,,,0.00,weatherlink.com 1.10,2013-03-28 15:47:00,
2013-03-28 12:02:00,64.5,41.0,30.23,NE,40,8.0,-999.0,43,-99.99,,,0.00,weatherlink.com 1.10,2013-03-28 16:02:00,
2013-03-28 12:17:00,66.0,41.0,30.23,NE,40,7.0,-999.0,41,-99.99,,,0.00,weatherlink.com 1.10,2013-03-28 16:17:00,
2013-03-28 12:32:00,65.1,40.0,30.23,NE,55,0.0,-999.0,40,-99.99,,,0.00,weatherlink.com 1.10,2013-03-28 16:32:00,
2013-03-28 12:47:00,66.0,41.0,30.23,NNE,32,6.0,-999.0,41,-99.99,,,0.00,weatherlink.com 1.10,2013-03-28 16:47:00,
2013-03-28 13:02:00,66.5,41.0,30.22,NE,46,11.0,-999.0,39,-99.99,,,0.00,weatherlink.com 1.10,2013-03-28 17:02:00,
2013-03-28 13:17:00,66.8,42.0,30.22,NNE,15,0.0,-999.0,40,-99.99,,,0.00,weatherlink.com 1.10,2013-03-28 17:17:00,
2013-03-28 13:32:00,67.3,45.0,30.21,NE,45,5.0,-999.0,45,-99.99,,,0.00,weatherlink.com 1.10,2013-03-28 17:32:00,
2013-03-28 13:47:00,67.1,41.0,30.21,North,355,11.0,-999.0,39,-99.99,,,0.00,weatherlink.com 1.10,2013-03-28 17:47:00,
2013-03-28 14:02:00,66.7,44.0,30.20,NE,53,10.0,-999.0,44,-99.99,,,0.00,weatherlink.com 1.10,2013-03-28 18:02:00,
2013-03-28 14:17:00,66.5,45.0,30.20,NE,42,7.0,-999.0,47,-99.99,,,0.00,weatherlink.com 1.10,2013-03-28 18:17:00,
2013-03-28 14:33:00,67.4,45.0,30.19,NNE,30,4.0,-999.0,44,-99.99,,,0.00,weatherlink.com 1.10,2013-03-28 18:33:00,
2013-03-28 14:48:00,67.2,48.0,30.19,NE,38,2.0,-999.0,51,-99.99,,,0.00,weatherlink.com 1.10,2013-03-28 18:48:00,
2013-03-28 15:03:00,67.6,47.0,30.18,North,10,0.0,-999.0,47,-99.99,,,0.00,weatherlink.com 1.10,2013-03-28 19:03:00,
2013-03-28 15:18:00,67.9,46.0,30.17,ENE,62,5.0,-999.0,45,-99.99,,,0.00,weatherlink.com 1.10,2013-03-28 19:18:00,
2013-03-28 15:33:00,67.0,47.0,30.17,NE,36,7.0,-999.0,49,-99.99,,,0.00,weatherlink.com 1.10,2013-03-28 19:33:00,
2013-03-28 15:48:00,66.4,47.0,30.16,ENE,63,0.0,-999.0,50,-99.99,,,0.00,weatherlink.com 1.10,2013-03-28 19:48:00,
2013-03-28 16:03:00,67.0,49.0,30.16,NE,51,11.0,-999.0,53,-99.99,,,0.00,weatherlink.com 1.10,2013-03-28 20:03:00,
2013-03-28 16:18:00,66.6,48.0,30.16,NNE,31,10.0,-999.0,52,-99.99,,,0.00,weatherlink.com 1.10,2013-03-28 20:18:00,
2013-03-28 16:33:00,66.9,49.0,30.15,NE,49,0.0,-999.0,53,-99.99,,,0.00,weatherlink.com 1.10,2013-03-28 20:33:00,
2013-03-28 16:48:00,66.4,49.0,30.14,ENE,60,3.0,-999.0,54,-99.99,,,0.00,weatherlink.com 1.10,2013-03-28 20:48:00,
2013-03-28 17:03:00,66.3,49.0,30.15,NE,49,6.0,-999.0,55,-99.99,,,0.00,weatherlink.com 1.10,2013-03-28 21:03:00,
2013-03-28 17:18:00,66.2,48.0,30.15,NE,53,0.0,-999.0,53,-99.99,,,0.00,weatherlink.com 1.10,2013-03-28 21:18:00,
2013-03-28 17:33:00,65.4,49.0,30.15,NE,46,6.0,-999.0,56,-99.99,,,0.00,weatherlink.com 1.10,2013-03-28 21:33:00,
2013-03-28 17:48:00,64.8,48.0,30.16,ENE,57,6.0,-999.0,55,-99.99,,,0.00,weatherlink.com 1.10,2013-03-28 21:48:00,
2013-03-28 18:03:00,64.1,47.0,30.16,ENE,57,0.0,-999.0,55,-99.99,,,0.00,weatherlink.com 1.10,2013-03-28 22:03:00,
2013-03-28 18:18:00,63.6,47.0,30.16,NE,44,0.0,-999.0,56,-99.99,,,0.00,weatherlink.com 1.10,2013-03-28 22:18:00,
2013-03-28 18:33:00,63.0,47.0,30.16,NE,39,5.0,-999.0,56,-99.99,,,0.00,weatherlink.com 1.10,2013-03-28 22:33:00,
2013-03-28 18:48:00,62.2,47.0,30.17,ENE,57,5.0,-999.0,57,-99.99,,,0.00,weatherlink.com 1.10,2013-03-28 22:48:00,
2013-03-28 19:03:00,61.6,46.0,30.17,NE,54,7.0,-999.0,58,-99.99,,,0.00,weatherlink.com 1.10,2013-03-28 23:03:00,
2013-03-28 19:18:00,61.1,47.0,30.17,NE,50,4.0,-999.0,60,-99.99,,,0.00,weatherlink.com 1.10,2013-03-28 23:18:00,
2013-03-28 19:33:00,60.4,46.0,30.18,NE,43,3.0,-999.0,60,-99.99,,,0.00,weatherlink.com 1.10,2013-03-28 23:33:00,
2013-03-28 19:48:00,60.2,46.0,30.18,NE,44,0.0,-999.0,60,-99.99,,,0.00,weatherlink.com 1.10,2013-03-28 23:48:00,
2013-03-28 20:03:00,59.7,46.0,30.19,NE,39,0.0,-999.0,62,-99.99,,,0.00,weatherlink.com 1.10,2013-03-29 00:03:00,
2013-03-28 20:18:00,59.1,47.0,30.19,NE,47,0.0,-999.0,64,-99.99,,,0.00,weatherlink.com 1.10,2013-03-29 00:18:00,
2013-03-28 20:33:00,59.4,47.0,30.19,NE,49,3.0,-999.0,64,-99.99,,,0.00,weatherlink.com 1.10,2013-03-29 00:33:00,
2013-03-28 20:48:00,59.6,47.0,30.19,NE,41,4.0,-999.0,63,-99.99,,,0.00,weatherlink.com 1.10,2013-03-29 00:48:00,
2013-03-28 21:03:00,59.7,47.0,30.19,NE,44,0.0,-999.0,64,-99.99,,,0.00,weatherlink.com 1.10,2013-03-29 01:03:00,
2013-03-28 21:18:00,59.5,48.0,30.20,NE,53,0.0,-999.0,66,-99.99,,,0.00,weatherlink.com 1.10,2013-03-29 01:18:00,
2013-03-28 21:33:00,59.8,47.0,30.20,NE,50,2.0,-999.0,64,-99.99,,,0.00,weatherlink.com 1.10,2013-03-29 01:33:00,
2013-03-28 21:48:00,59.5,48.0,30.20,NE,48,0.0,-999.0,65,-99.99,,,0.00,weatherlink.com 1.10,2013-03-29 01:48:00,
2013-03-28 22:03:00,59.2,48.0,30.20,NE,42,0.0,-999.0,67,-99.99,,,0.00,weatherlink.com 1.10,2013-03-29 02:03:00,
2013-03-28 22:18:00,58.8,48.0,30.21,NE,42,0.0,-999.0,68,-99.99,,,0.00,weatherlink.com 1.10,2013-03-29 02:18:00,
2013-03-28 22:33:00,58.9,49.0,30.21,NE,42,0.0,-999.0,69,-99.99,,,0.00,weatherlink.com 1.10,2013-03-29 02:33:00,
2013-03-28 22:48:00,58.8,49.0,30.21,NE,42,0.0,-999.0,69,-99.99,,,0.00,weatherlink.com 1.10,2013-03-29 02:48:00,
2013-03-28 23:03:00,59.1,49.0,30.21,NE,42,0.0,-999.0,69,-99.99,,,0.00,weatherlink.com 1.10,2013-03-29 03:03:00,
2013-03-28 23:20:00,59.4,49.0,30.22,NNE,30,0.0,-999.0,68,-99.99,,,0.00,weatherlink.com 1.10,2013-03-29 03:20:00,
2013-03-28 23:33:00,59.3,49.0,30.22,NNE,30,0.0,-999.0,69,-99.99,,,0.00,weatherlink.com 1.10,2013-03-29 03:33:00,
2013-03-28 23:48:00,59.2,49.0,30.22,NNE,31,0.0,-999.0,69,-99.99,,,0.00,weatherlink.com 1.10,2013-03-29 03:48:00,